Weather observations for the past three days for
Petaluma Municipal Airport
| Date | Time (pdt) | Wind (kph) | Vis. (km) | Weather | Sky Cond. | Temperature (ºC) | Relative Humidity | Wind Chill (°C) | Heat Index (°C) | Pressure | Precipitation (cm) | ||||||
|---|---|---|---|---|---|---|---|---|---|---|---|---|---|---|---|---|---|
| Air | Dwpt | 6 hour | altimeter (cm) | sea level (mb) | 1 hr | 3 hr | 6 hr | ||||||||||
| Max. | Min. | ||||||||||||||||
| 05 | 10:50 | Vrbl 6 | 16.09 | Fair | CLR | 19 | 11 | 60% | 76.15 | 0.0 | |||||||
| 05 | 10:35 | Vrbl 7 | 16.09 | Fair | CLR | 18 | 11 | 64% | 76.17 | 0.0 | |||||||
| 05 | 10:15 | Calm | 16.09 | Fair | CLR | 17 | 12 | 73% | 76.17 | 0.0 | |||||||
| 05 | 09:50 | Calm | 16.09 | Fair | CLR | 15 | 14 | 94% | 76.17 | 0.0 | |||||||
| 05 | 09:35 | Calm | 16.09 | A Few Clouds | FEW002 | 14 | 14 | 100% | 76.17 | 0.0 | |||||||
| 05 | 09:15 | Calm | 9.66 | Fog/Mist | BKN003 | 13 | 13 | 100% | 76.17 | 0.0 | |||||||
| 05 | 08:55 | Calm | 4.83 | Fog/Mist | OVC003 | 11 | 11 | 100% | 76.17 | 0.0 | |||||||
| 05 | 08:35 | Calm | 0.40 | Fog | OVC003 | 10 | 10 | 100% | 76.15 | 0.0 | |||||||
| 05 | 08:10 | Calm | 0.24 | Fog | OVC003 | 10 | 10 | 100% | 76.15 | 0.0 | |||||||
| 05 | 07:50 | Calm | 0.24 | Fog | OVC003 | 9 | 9 | 100% | 76.15 | 0.0 | |||||||
| 05 | 07:35 | W 6 | 0.40 | Fog | OVC002 | 9 | 9 | 100% | 76.15 | 0.0 | |||||||
| 05 | 07:15 | Calm | 0.24 | Fog | OVC002 | 9 | 9 | 100% | 76.12 | 0.0 | |||||||
| 05 | 06:50 | Calm | 1.61 | Fog/Mist | BKN003 | 8 | 8 | 100% | 76.12 | 0.0 | |||||||
| 05 | 06:35 | Calm | 1.21 | Fog/Mist | OVC003 | 8 | 8 | 100% | 76.12 | 0.0 | |||||||
| 05 | 06:15 | Calm | 8.05 | Fog/Mist | OVC003 | 8 | 8 | 100% | 76.12 | 0.0 | |||||||
| 05 | 05:50 | Calm | 0.24 | Fog | OVC002 | 8 | 8 | 100% | 76.1 | 0.0 | |||||||
| 05 | 05:30 | Calm | 12.87 | Overcast | OVC002 | 8 | 8 | 100% | 76.1 | 0.0 | |||||||
| 05 | 05:15 | Calm | 0.80 | Fog | OVC002 | 9 | 9 | 100% | 76.1 | 0.0 | |||||||
| 05 | 04:50 | Calm | 6.44 | Fog/Mist | OVC002 | 8 | 8 | 100% | 76.1 | 0.0 | |||||||
| 05 | 04:30 | Calm | 12.87 | Overcast | OVC003 | 9 | 9 | 100% | 76.12 | 0.0 | |||||||
| 05 | 04:10 | Calm | 0.40 | Fog | OVC003 | 9 | 9 | 100% | 76.1 | 0.0 | |||||||
| 05 | 03:50 | Calm | 9.66 | Fog/Mist | OVC003 | 9 | 9 | 100% | 76.12 | 0.0 | |||||||
| 05 | 03:35 | Calm | 0.40 | Fog | OVC003 | 9 | 9 | 100% | 76.12 | 0.0 | |||||||
| 05 | 03:15 | Calm | 0.80 | Fog | OVC003 | 10 | 10 | 100% | 76.12 | 0.0 | |||||||
| 05 | 02:50 | Calm | 8.05 | Fog/Mist | BKN003 BKN019 | 10 | 10 | 100% | 76.12 | 0.0 | |||||||
| 05 | 02:35 | Calm | 8.05 | Fog/Mist | SCT003 BKN019 BKN044 | 9 | 9 | 100% | 76.12 | 0.0 | |||||||
| 05 | 02:15 | Calm | 9.66 | Fog/Mist | FEW003 OVC020 | 10 | 10 | 100% | 76.15 | 0.0 | |||||||
| 05 | 01:50 | Calm | 16.09 | Overcast | SCT003 OVC022 | 11 | 11 | 100% | 76.12 | 0.0 | |||||||
| 05 | 01:30 | Calm | 14.48 | Overcast | FEW003 OVC022 | 12 | 12 | 100% | 76.12 | 0.0 | |||||||
| 05 | 01:15 | Calm | 14.48 | Overcast | BKN003 OVC022 | 12 | 12 | 100% | 76.12 | 0.0 | |||||||
| 05 | 00:50 | Calm | 14.48 | Overcast | BKN003 OVC023 | 12 | 12 | 100% | 76.12 | 0.0 | |||||||
| 05 | 00:30 | NW 6 | 14.48 | Overcast | OVC003 | 12 | 12 | 100% | 76.12 | 0.0 | |||||||
| 05 | 00:15 | Calm | 14.48 | Overcast | OVC003 | 11 | 11 | 100% | 76.12 | 0.0 | |||||||
| 04 | 23:50 | Calm | 14.48 | Overcast | OVC005 | 12 | 12 | 100% | 76.12 | 0.0 | |||||||
| 04 | 23:35 | Calm | 16.09 | Overcast | OVC005 | 12 | 12 | 100% | 76.12 | 0.0 | |||||||
| 04 | 23:15 | Calm | 16.09 | Overcast | OVC006 | 12 | 12 | 100% | 76.12 | 0.0 | |||||||
| 04 | 22:50 | Calm | 16.09 | Overcast | OVC007 | 13 | 13 | 100% | 76.12 | 0.0 | |||||||
| 04 | 22:35 | Calm | 16.09 | Overcast | OVC008 | 13 | 13 | 100% | 76.12 | 0.0 | |||||||
| 04 | 22:15 | Calm | 16.09 | Overcast | OVC009 | 13 | 13 | 100% | 76.15 | 0.0 | |||||||
| 04 | 21:55 | Calm | 16.09 | Overcast | OVC010 | 13 | 13 | 100% | 76.15 | 0.0 | |||||||
| 04 | 21:35 | Calm | 16.09 | Overcast | OVC011 | 14 | 14 | 100% | 76.15 | 0.0 | |||||||
| 04 | 21:15 | Calm | 16.09 | Overcast | OVC013 | 14 | 14 | 100% | 76.15 | 0.0 | |||||||
| 04 | 20:55 | W 9 | 16.09 | Overcast | OVC013 | 14 | 14 | 100% | 76.15 | 0.0 | |||||||
| 04 | 20:35 | W 9 | 16.09 | Overcast | BKN015 OVC021 | 14 | 14 | 100% | 76.12 | 0.0 | |||||||
| 04 | 20:10 | W 11 | 16.09 | Mostly Cloudy | BKN018 BKN024 BKN033 | 15 | 13 | 88% | 76.12 | 0.0 | |||||||
| 04 | 19:55 | W 13 | 16.09 | Partly Cloudy | SCT021 SCT026 SCT033 | 15 | 13 | 88% | 76.12 | 0.0 | |||||||
| 04 | 19:35 | W 15 | 16.09 | Fair | CLR | 16 | 13 | 83% | 76.12 | 0.0 | |||||||
| 04 | 19:10 | W 17 | 16.09 | Fair | CLR | 17 | 12 | 73% | 76.12 | 0.0 | |||||||
| 04 | 18:55 | W 15 G 28 | 16.09 | Fair | CLR | 17 | 12 | 73% | 76.1 | 0.0 | |||||||
| 04 | 18:35 | W 19 G 33 | 16.09 | Fair | CLR | 18 | 11 | 64% | 76.1 | 0.0 | |||||||
| 04 | 18:10 | W 17 G 33 | 16.09 | Fair | CLR | 19 | 10 | 56% | 76.1 | 0.0 | |||||||
| 04 | 17:55 | W 19 | 16.09 | Fair | CLR | 19 | 10 | 56% | 76.1 | 0.0 | |||||||
| 04 | 17:35 | W 24 | 16.09 | Fair | CLR | 20 | 10 | 53% | 76.1 | 0.0 | |||||||
| 04 | 17:15 | W 22 G 33 | 16.09 | Fair | CLR | 20 | 10 | 53% | 76.07 | 0.0 | |||||||
| 04 | 16:50 | W 24 G 33 | 16.09 | Fair | CLR | 21 | 10 | 50% | 76.07 | 0.0 | |||||||
| 04 | 16:35 | W 28 | 16.09 | Fair | CLR | 21 | 9 | 46% | 76.07 | 0.0 | |||||||
| 04 | 16:10 | W 24 | 16.09 | Fair | CLR | 22 | 9 | 44% | 76.07 | 0.0 | |||||||
| 04 | 15:50 | W 20 G 31 | 16.09 | Fair | CLR | 22 | 9 | 44% | 76.07 | 0.0 | |||||||
| 04 | 15:30 | SW 22 | 16.09 | Fair | CLR | 23 | 8 | 38% | 76.07 | 0.0 | |||||||
| 04 | 15:15 | W 26 | 16.09 | Fair | CLR | 23 | 9 | 41% | 76.07 | 0.0 | |||||||
| 04 | 14:50 | W 20 G 33 | 16.09 | Fair | CLR | 23 | 8 | 38% | 76.1 | 0.0 | |||||||
| 04 | 14:35 | W 22 G 33 | 16.09 | Fair | CLR | 23 | 8 | 38% | 76.1 | 0.0 | |||||||
| 04 | 14:15 | W 24 | 16.09 | A Few Clouds | FEW050 | 23 | 9 | 41% | 76.07 | 0.0 | |||||||
| 04 | 13:50 | SW 17 | 16.09 | Fair | CLR | 24 | 8 | 36% | 25 | 76.07 | 0.0 | ||||||
| 04 | 13:35 | W 15 | 16.09 | Fair | CLR | 24 | 9 | 39% | 25 | 76.07 | 0.0 | ||||||
| 04 | 13:10 | Vrbl 6 | 16.09 | Fair | CLR | 23 | 9 | 41% | 76.07 | 0.0 | |||||||
| 04 | 12:50 | Vrbl 9 | 16.09 | Fair | CLR | 22 | 9 | 44% | 76.1 | 0.0 | |||||||
| 04 | 12:30 | N 11 | 16.09 | Fair | CLR | 21 | 10 | 50% | 76.1 | 0.0 | |||||||
| 04 | 12:15 | Vrbl 7 G 19 | 16.09 | Fair | CLR | 21 | 10 | 50% | 76.12 | 0.0 | |||||||
| 04 | 11:50 | Vrbl 9 G 19 | 16.09 | Fair | CLR | 20 | 10 | 53% | 76.12 | 0.0 | |||||||
| 04 | 11:35 | Calm | 16.09 | Fair | CLR | 19 | 11 | 60% | 76.12 | 0.0 | |||||||
| 04 | 11:15 | W 9 | 16.09 | Fair | CLR | 18 | 11 | 64% | 76.12 | 0.0 | |||||||
| 04 | 10:50 | Vrbl 9 | 16.09 | Fair | CLR | 17 | 12 | 73% | 76.12 | 0.0 | |||||||
| 04 | 10:35 | Vrbl 7 | 16.09 | A Few Clouds | FEW009 | 16 | 14 | 88% | 76.15 | 0.0 | |||||||
| 04 | 10:15 | Vrbl 7 | 16.09 | Partly Cloudy | SCT008 | 15 | 14 | 94% | 76.12 | 0.0 | |||||||
| 04 | 09:50 | W 9 | 16.09 | Overcast | OVC006 | 14 | 14 | 100% | 76.12 | 0.0 | |||||||
| 04 | 09:35 | W 11 | 16.09 | Overcast | OVC005 | 13 | 13 | 100% | 76.12 | 0.0 | |||||||
| 04 | 09:15 | W 9 | 12.87 | Overcast | OVC004 | 13 | 13 | 100% | 76.1 | 0.0 | |||||||
| 04 | 08:50 | W 11 | 2.01 | Fog/Mist | OVC003 | 12 | 12 | 100% | 76.12 | 0.0 | |||||||
| 04 | 08:35 | W 11 | 1.21 | Fog/Mist | OVC003 | 12 | 12 | 100% | 76.1 | 0.0 | |||||||
| 04 | 08:10 | Vrbl 6 | 0.24 | Fog | OVC003 | 12 | 12 | 100% | 76.1 | 0.0 | |||||||
| 04 | 07:50 | W 7 | 0.24 | Fog | OVC003 | 12 | 12 | 100% | 76.07 | 0.0 | |||||||
| 04 | 07:35 | W 7 | 0.24 | Fog | OVC002 | 12 | 12 | 100% | 76.07 | 0.0 | |||||||
| 04 | 07:15 | Calm | 0.24 | Fog | OVC003 | 12 | 12 | 100% | 76.05 | 0.0 | |||||||
| 04 | 06:50 | W 6 | 0.80 | Freezing Fog | OVC003 | 0 | 0 | 0% | 76.02 | 0.0 | |||||||
| 04 | 06:35 | N 6 | 3.22 | Fog/Mist | OVC003 | 12 | 12 | 100% | 76.02 | 0.0 | |||||||
| 04 | 06:15 | NW 6 | 9.66 | Fog/Mist | OVC004 | 12 | 12 | 100% | 76.02 | 0.0 | |||||||
| 04 | 05:50 | W 9 | 9.66 | Fog/Mist | OVC004 | 12 | 12 | 100% | 76 | 0.0 | |||||||
| 04 | 05:35 | Vrbl 7 | 9.66 | Fog/Mist | OVC004 | 12 | 12 | 100% | 75.97 | 0.0 | |||||||
| 04 | 05:15 | W 7 | 11.27 | Overcast | OVC004 | 12 | 12 | 100% | 75.97 | 0.0 | |||||||
| 04 | 04:50 | W 7 | 12.87 | Overcast | OVC004 | 12 | 12 | 100% | 76 | 0.0 | |||||||
| 04 | 04:35 | W 9 | 12.87 | Overcast | OVC004 | 12 | 12 | 100% | 75.97 | 0.0 | |||||||
| 04 | 04:15 | W 11 | 6.44 | Fog/Mist | OVC003 | 13 | 13 | 100% | 75.97 | 0.0 | |||||||
| 04 | 03:50 | Calm | 6.44 | Fog/Mist | OVC004 | 13 | 13 | 100% | 75.97 | 0.0 | |||||||
| 04 | 03:35 | Calm | 8.05 | Fog/Mist | OVC004 | 13 | 13 | 100% | 75.97 | 0.0 | |||||||
| 04 | 03:15 | Calm | 12.87 | Overcast | OVC005 | 12 | 12 | 100% | 75.97 | 0.0 | |||||||
| 04 | 02:50 | Calm | 12.87 | Overcast | OVC005 | 13 | 13 | 100% | 75.95 | 0.0 | |||||||
| 04 | 02:30 | W 9 | 16.09 | Overcast | OVC005 | 13 | 13 | 100% | 75.95 | 0.0 | |||||||
| 04 | 02:15 | Calm | 16.09 | Overcast | OVC007 | 14 | 14 | 100% | 75.95 | 0.0 | |||||||
| 04 | 01:50 | Vrbl 6 | 16.09 | Overcast | OVC007 | 14 | 14 | 100% | 75.97 | 0.0 | |||||||
| 04 | 01:30 | W 9 | 16.09 | Overcast | OVC008 | 14 | 14 | 100% | 75.97 | 0.0 | |||||||
| 04 | 01:10 | W 13 | 16.09 | Overcast | BKN007 OVC011 | 14 | 14 | 100% | 75.97 | 0.0 | |||||||
| 04 | 00:50 | W 7 | 16.09 | Overcast | OVC007 | 14 | 14 | 100% | 75.95 | 0.0 | |||||||
| 04 | 00:30 | Calm | 16.09 | Overcast | OVC007 | 14 | 14 | 100% | 75.95 | 0.0 | |||||||
| 04 | 00:10 | Vrbl 11 | 16.09 | Overcast | OVC007 | 15 | 15 | 100% | 75.95 | 0.0 | |||||||
| 03 | 23:55 | Calm | 16.09 | Overcast | OVC008 | 15 | 15 | 100% | 75.95 | 0.0 | |||||||
| 03 | 23:35 | Vrbl 7 | 16.09 | Overcast | BKN009 OVC014 | 15 | 15 | 100% | 75.95 | 0.0 | |||||||
| 03 | 23:10 | Vrbl 9 | 16.09 | Overcast | OVC007 | 15 | 15 | 100% | 75.95 | 0.0 | |||||||
| 03 | 22:55 | NW 6 | 16.09 | Overcast | OVC007 | 15 | 15 | 100% | 75.95 | 0.0 | |||||||
| 03 | 22:35 | NW 6 | 16.09 | Overcast | OVC007 | 15 | 15 | 100% | 75.95 | 0.0 | |||||||
| 03 | 22:15 | Calm | 16.09 | Overcast | OVC008 | 15 | 15 | 100% | 75.97 | 0.0 | |||||||
| 03 | 21:55 | Calm | 16.09 | Overcast | OVC009 | 15 | 15 | 100% | 75.97 | 0.0 | |||||||
| 03 | 21:35 | W 6 | 16.09 | Overcast | OVC008 | 15 | 15 | 100% | 75.97 | 0.0 | |||||||
| 03 | 21:10 | Calm | 16.09 | Overcast | OVC008 | 15 | 15 | 100% | 75.95 | 0.0 | |||||||
| 03 | 20:55 | Calm | 16.09 | Overcast | OVC009 | 15 | 15 | 100% | 75.95 | 0.0 | |||||||
| 03 | 20:35 | Calm | 16.09 | Overcast | OVC010 | 15 | 15 | 100% | 75.95 | 0.0 | |||||||
| 03 | 20:15 | Calm | 16.09 | Overcast | OVC011 | 15 | 15 | 100% | 75.95 | 0.0 | |||||||
| 03 | 19:50 | Calm | 16.09 | Overcast | BKN013 BKN041 OVC065 | 15 | 15 | 100% | 75.92 | 0.0 | |||||||
| 03 | 19:35 | Calm | 16.09 | Mostly Cloudy | FEW011 SCT034 BKN055 | 15 | 15 | 100% | 75.92 | 0.0 | |||||||
| 03 | 19:15 | Calm | 16.09 | Overcast | FEW035 BKN045 OVC070 | 15 | 15 | 100% | 75.92 | 0.0 | |||||||
| 03 | 18:55 | Calm | 14.48 | Mostly Cloudy | FEW009 SCT013 BKN034 | 15 | 15 | 100% | 75.95 | 0.0 | |||||||
| 03 | 18:35 | Calm | 14.48 | Overcast | FEW009 FEW015 OVC031 | 15 | 15 | 100% | 75.97 | 0.0 | |||||||
| 03 | 18:10 | W 9 | 16.09 | Overcast | FEW010 FEW014 OVC030 | 15 | 15 | 100% | 75.97 | 0.0 | |||||||
| 03 | 17:55 | NW 6 | 12.87 | Mostly Cloudy | FEW010 SCT017 BKN031 | 15 | 15 | 100% | 75.97 | 0.0 | 0.03 | ||||||
| 03 | 17:35 | W 7 | 4.83 | Fog/Mist | FEW006 SCT016 BKN021 | 15 | 15 | 100% | 75.97 | 0.0 | |||||||
| 03 | 17:10 | Calm | 2.41 | Fog/Mist | BKN023 OVC027 | 15 | 15 | 100% | 76 | 0.0 | |||||||
| 03 | 16:55 | Vrbl 7 | 4.83 | Fog/Mist | SCT025 BKN033 | 15 | 15 | 100% | 76 | 0.0 | 0.03 | ||||||
| 03 | 16:35 | NW 7 | 3.22 | Fog/Mist | FEW023 SCT031 | 16 | 16 | 100% | 76 | 0.0 | |||||||
| 03 | 16:15 | NW 6 | 8.05 | Fog/Mist | FEW016 OVC032 | 17 | 16 | 94% | 76.02 | 0.0 | |||||||
| 03 | 15:50 | W 9 G 20 | 16.09 | Overcast | FEW018 FEW025 OVC033 | 17 | 16 | 94% | 76.02 | 0.0 | |||||||
| 03 | 15:35 | W 13 | 14.48 | Mostly Cloudy | FEW009 SCT019 BKN028 | 17 | 17 | 100% | 76.02 | 0.0 | |||||||
| 03 | 15:10 | SW 15 | 2.41 | Fog/Mist | SCT010 BKN018 OVC022 | 17 | 17 | 100% | 76.05 | 0.0 | |||||||
| 03 | 14:50 | SW 17 | 16.09 | Mostly Cloudy | FEW012 SCT019 BKN025 | 18 | 18 | 100% | 76.02 | 0.0 | |||||||
| 03 | 14:30 | S 13 | 8.05 | Fog/Mist | SCT012 BKN019 OVC044 | 18 | 18 | 100% | 76.02 | 0.0 | |||||||
| 03 | 14:10 | SW 11 | 9.66 | Fog/Mist | FEW009 SCT014 BKN019 | 18 | 18 | 100% | 76.05 | 0.0 | |||||||
| 03 | 13:55 | SW 9 G 20 | 1.61 | Fog/Mist | SCT008 OVC014 | 17 | 17 | 100% | 76.05 | 0.0 | 0.03 | ||||||
| 03 | 13:30 | W 11 | 14.48 | Overcast | SCT013 BKN019 OVC036 | 18 | 17 | 94% | 76.05 | 0.0 | |||||||
| 03 | 13:10 | Vrbl 11 | 12.87 | Overcast | BKN024 BKN032 OVC040 | 18 | 18 | 100% | 76.07 | 0.0 | |||||||
| 03 | 12:50 | SW 15 | 9.66 | Fog/Mist | FEW015 SCT023 BKN029 | 18 | 17 | 94% | 76.07 | 0.0 | |||||||
| 03 | 12:35 | SW 15 | 16.09 | Overcast | SCT014 BKN021 OVC055 | 19 | 18 | 94% | 76.1 | 0.0 | |||||||
| 03 | 11:50 | SW 9 | 3.22 | Fog/Mist | FEW008 BKN015 BKN021 | 17 | 17 | 100% | 76.12 | 0.0 | |||||||
| 03 | 11:35 | S 9 | 2.41 | Fog/Mist | BKN008 OVC016 | 17 | 17 | 100% | 76.12 | 0.0 | |||||||
| 03 | 11:15 | SW 9 | 3.22 | Fog/Mist | OVC015 | 17 | 17 | 100% | 76.12 | 0.0 | |||||||
| 03 | 10:50 | SW 7 | 8.05 | Fog/Mist | BKN009 OVC015 | 16 | 16 | 100% | 76.12 | 0.0 | |||||||
| 03 | 10:35 | Calm | 4.02 | Fog/Mist | SCT009 BKN013 BKN019 | 16 | 16 | 100% | 76.12 | 0.0 | |||||||
| 03 | 10:15 | Calm | 3.22 | Fog/Mist | FEW007 BKN013 | 16 | 16 | 100% | 76.12 | 0.0 | |||||||
| 03 | 09:50 | Calm | 2.01 | Fog/Mist | BKN009 OVC013 | 16 | 16 | 100% | 76.12 | 0.0 | |||||||
| 03 | 09:35 | SE 7 | 2.41 | Fog/Mist | OVC010 | 16 | 16 | 100% | 76.12 | 0.0 | |||||||
| 03 | 09:15 | Calm | 14.48 | Overcast | OVC013 | 17 | 16 | 94% | 76.12 | 0.0 | |||||||
| 03 | 08:50 | Calm | 16.09 | Overcast | OVC014 | 17 | 15 | 88% | 76.15 | 0.0 | |||||||
| 03 | 08:10 | Calm | 16.09 | Overcast | OVC014 | 16 | 15 | 94% | 76.15 | 0.0 | |||||||
| 03 | 07:50 | Calm | 16.09 | Overcast | OVC016 | 16 | 15 | 94% | 76.15 | 0.0 | |||||||
| 03 | 07:30 | Calm | 16.09 | Overcast | BKN019 OVC028 | 15 | 15 | 100% | 76.12 | 0.0 | |||||||
| 03 | 07:15 | Calm | 16.09 | Overcast | BKN021 BKN027 OVC033 | 15 | 15 | 100% | 76.12 | 0.0 | |||||||
| 03 | 06:50 | E 6 | 16.09 | Overcast | BKN027 OVC034 | 15 | 15 | 100% | 76.12 | 0.0 | |||||||
| 03 | 06:35 | Calm | 16.09 | Overcast | BKN030 OVC035 | 15 | 15 | 100% | 76.12 | 0.0 | |||||||
| 03 | 06:10 | Calm | 16.09 | Overcast | OVC034 | 15 | 15 | 100% | 76.12 | 0.0 | |||||||
| 03 | 05:55 | Calm | 16.09 | Overcast | OVC034 | 15 | 15 | 100% | 76.12 | 0.0 | |||||||
| 03 | 05:30 | Calm | 16.09 | Overcast | SCT030 OVC037 | 15 | 15 | 100% | 76.15 | 0.0 | |||||||
| 03 | 05:10 | Calm | 16.09 | Overcast | FEW022 SCT028 OVC039 | 15 | 15 | 100% | 76.15 | 0.0 | |||||||
| 03 | 04:55 | Calm | 16.09 | Overcast | FEW015 BKN022 OVC039 | 15 | 15 | 100% | 76.15 | 0.0 | |||||||
| 03 | 04:35 | Calm | 16.09 | Overcast | BKN015 OVC022 | 15 | 15 | 100% | 76.17 | 0.0 | |||||||
| 03 | 04:15 | Calm | 16.09 | Overcast | OVC016 | 15 | 15 | 100% | 76.17 | 0.0 | |||||||
| 03 | 03:50 | SE 6 | 16.09 | Overcast | OVC015 | 15 | 14 | 94% | 76.2 | 0.0 | |||||||
| 03 | 03:35 | Calm | 16.09 | Overcast | OVC013 | 15 | 15 | 100% | 76.2 | 0.0 | |||||||
| 03 | 03:15 | Calm | 16.09 | Overcast | OVC014 | 15 | 15 | 100% | 76.2 | 0.0 | |||||||
| 03 | 02:50 | Calm | 16.09 | Overcast | OVC011 | 15 | 15 | 100% | 76.2 | 0.0 | |||||||
| 03 | 02:30 | Calm | 16.09 | Overcast | OVC012 | 15 | 15 | 100% | 76.23 | 0.0 | |||||||
| 03 | 01:50 | Calm | 16.09 | Overcast | BKN010 OVC017 | 14 | 14 | 100% | 76.25 | 0.0 | |||||||
| 03 | 01:35 | Calm | 16.09 | Overcast | OVC017 | 14 | 14 | 100% | 76.25 | 0.0 | |||||||
| 03 | 01:10 | Calm | 16.09 | Overcast | OVC018 | 14 | 14 | 100% | 76.25 | 0.0 | |||||||
| 03 | 00:50 | Calm | 16.09 | Overcast | OVC019 | 14 | 14 | 100% | 76.25 | 0.0 | |||||||
| 03 | 00:30 | NW 7 | 16.09 | Overcast | OVC017 | 14 | 14 | 100% | 76.25 | 0.0 | |||||||
| 03 | 00:15 | NW 7 | 16.09 | Overcast | OVC016 | 14 | 14 | 100% | 76.25 | 0.0 | |||||||
| 02 | 23:55 | N 6 | 16.09 | Overcast | OVC016 | 14 | 14 | 100% | 76.28 | 0.0 | |||||||
| 02 | 23:35 | Calm | 16.09 | Mostly Cloudy | BKN018 BKN028 | 13 | 13 | 100% | 76.28 | 0.0 | |||||||
| 02 | 23:10 | Calm | 16.09 | Mostly Cloudy | BKN019 BKN029 | 14 | 14 | 100% | 76.28 | 0.0 | |||||||
| 02 | 22:55 | Calm | 16.09 | Overcast | OVC020 | 14 | 14 | 100% | 76.3 | 0.0 | |||||||
| 02 | 22:35 | Calm | 16.09 | Overcast | OVC020 | 14 | 14 | 100% | 76.3 | 0.0 | |||||||
| 02 | 22:10 | Calm | 16.09 | Overcast | FEW012 BKN019 OVC024 | 15 | 15 | 100% | 76.3 | 0.0 | |||||||
| 02 | 21:50 | W 7 | 16.09 | Overcast | FEW013 OVC024 | 15 | 15 | 100% | 76.3 | 0.0 | |||||||
| 02 | 21:35 | W 7 | 16.09 | Overcast | FEW013 OVC024 | 15 | 15 | 100% | 76.3 | 0.0 | |||||||
| 02 | 21:15 | Calm | 16.09 | Overcast | BKN019 OVC024 | 15 | 15 | 100% | 76.3 | 0.0 | |||||||
| 02 | 20:55 | Vrbl 6 | 16.09 | Mostly Cloudy | BKN018 | 15 | 15 | 100% | 76.28 | 0.0 | |||||||
| 02 | 20:35 | NW 6 | 16.09 | Mostly Cloudy | BKN017 | 15 | 14 | 94% | 76.28 | 0.0 | |||||||
| 02 | 20:15 | NW 7 | 16.09 | Partly Cloudy | SCT018 | 15 | 14 | 94% | 76.25 | 0.0 | |||||||
| 02 | 19:55 | Vrbl 9 G 20 | 16.09 | Fair | CLR | 16 | 14 | 88% | 76.25 | 0.0 | |||||||
| 02 | 19:35 | W 13 G 22 | 16.09 | A Few Clouds | FEW022 | 16 | 13 | 83% | 76.25 | 0.0 | |||||||
| 02 | 19:10 | Vrbl 9 G 22 | 16.09 | Mostly Cloudy | BKN024 | 18 | 13 | 73% | 76.25 | 0.0 | |||||||
| 02 | 18:55 | W 15 | 16.09 | A Few Clouds | FEW025 | 19 | 12 | 64% | 76.25 | 0.0 | |||||||
| 02 | 18:35 | W 17 | 16.09 | Fair | CLR | 19 | 12 | 64% | 76.28 | 0.0 | |||||||
| 02 | 18:10 | W 20 | 16.09 | Fair | CLR | 20 | 10 | 53% | 76.28 | 0.0 | |||||||
| 02 | 17:55 | W 15 G 30 | 16.09 | Fair | CLR | 21 | 11 | 53% | 76.25 | 0.0 | |||||||
| 02 | 17:35 | W 15 | 16.09 | Fair | CLR | 21 | 11 | 53% | 76.25 | 0.0 | |||||||
| 02 | 17:10 | W 19 | 16.09 | Fair | CLR | 22 | 11 | 50% | 76.28 | 0.0 | |||||||
| 02 | 16:55 | W 15 G 30 | 16.09 | A Few Clouds | FEW037 | 22 | 11 | 50% | 76.28 | 0.0 | |||||||
| 02 | 16:30 | W 15 G 33 | 16.09 | A Few Clouds | FEW040 | 22 | 11 | 50% | 76.28 | 0.0 | |||||||
| 02 | 16:15 | NW 20 G 30 | 16.09 | A Few Clouds | FEW040 | 22 | 11 | 50% | 76.28 | 0.0 | |||||||
| 02 | 15:50 | W 19 G 30 | 16.09 | Partly Cloudy | SCT041 | 22 | 11 | 50% | 76.3 | 0.0 | |||||||
| 02 | 15:35 | W 19 G 30 | 16.09 | Partly Cloudy | SCT041 | 23 | 11 | 47% | 76.3 | 0.0 | |||||||
| 02 | 15:15 | SW 17 | 16.09 | Partly Cloudy | SCT043 | 23 | 10 | 44% | 76.3 | 0.0 | |||||||
| 02 | 14:50 | Vrbl 11 | 16.09 | Partly Cloudy | SCT043 | 23 | 10 | 44% | 76.3 | 0.0 | |||||||
| 02 | 14:35 | SW 13 | 16.09 | Mostly Cloudy | BKN043 | 24 | 10 | 41% | 25 | 76.3 | 0.0 | ||||||
| 02 | 14:15 | Vrbl 7 G 20 | 16.09 | Mostly Cloudy | SCT040 BKN046 | 22 | 11 | 50% | 76.33 | 0.0 | |||||||
| 02 | 13:50 | W 13 | 16.09 | Mostly Cloudy | FEW033 BKN039 BKN046 | 21 | 12 | 57% | 76.33 | 0.0 | |||||||
| 02 | 13:35 | W 13 | 16.09 | Mostly Cloudy | SCT028 SCT040 BKN047 | 21 | 12 | 57% | 76.33 | 0.0 | |||||||
| 02 | 13:10 | Vrbl 11 | 16.09 | Mostly Cloudy | BKN027 BKN031 BKN038 | 20 | 13 | 64% | 76.35 | 0.0 | |||||||
| 02 | 12:50 | SW 9 G 20 | 16.09 | Mostly Cloudy | SCT024 BKN029 BKN037 | 20 | 13 | 64% | 76.35 | 0.0 | |||||||
| 02 | 12:30 | SW 13 | 16.09 | Mostly Cloudy | SCT021 BKN028 BKN032 | 20 | 14 | 69% | 76.38 | 0.0 | |||||||
| 02 | 12:10 | Vrbl 9 G 20 | 16.09 | Overcast | BKN020 BKN024 OVC055 | 19 | 15 | 78% | 76.38 | 0.0 | |||||||
| 02 | 11:55 | SW 17 | 16.09 | Overcast | SCT016 BKN024 OVC050 | 19 | 16 | 83% | 76.38 | 0.0 | |||||||
| Date | Time (pdt) | Wind (kph) | Vis. (km) | Weather | Sky Cond. | Air | Dwpt | Max. | Min. | Relative Humidity | Wind Chill (°C) | Heat Index (°C) | altimeter (cm) | sea level (mb) | 1 hr | 3 hr | 6 hr |
| 6 hour | |||||||||||||||||
| Temperature (ºC) | Pressure | Precipitation (cm) | |||||||||||||||